Regional Weather Roundup
Issued by NWS

Home | Current Version | Previous Version | Graphics & Text | Print | Product List | Glossary On
Versions: 1 2 3 4 5 6 7 8 9 10 11 12 13 14 15 16 17 18 19 20 21 22 23 24 25 26 27 28 29 30 31 32 33 34 35 36 37 38 39 40 41 42 43 44 45 46 47 48 49 50
000
ASUS43 KOAX 092310
RWRNE

WEATHER ROUNDUP FOR NEBRASKA
NATIONAL WEATHER SERVICE OMAHA NE
500 PM CST FRI DEC 09 2016

NOTES: SATELLITE DATA IS BEING USED TO AUGMENT CLOUD COVER ABOVE
       12000 FEET.
       "FAIR" INDICATES FEW OR NO CLOUDS BELOW 12,000 FEET WITH NO
       SIGNIFICANT WEATHER AND/OR OBSTRUCTIONS TO VISIBILITY.

  * THESE STATIONS DO NOT REPORT WEATHER SUCH AS RAIN...SNOW OR FOG.

NEZ001>004-019>022-054>056-100000-
NEBRASKA PANHANDLE

CITY           SKY/WX    TMP DP  RH WIND       PRES   REMARKS
SCOTTSBLUFF    CLEAR     22  10  60 E9        30.19S WCI  12
ALLIANCE       CLOUDY    15   4  61 NE12      30.22R WCI   2
CHADRON        CLOUDY     6  -1  73 NE9       30.32  WCI  -8
KIMBALL        CLOUDY    25  18  75 E6        30.14S WCI  18
SIDNEY         CLOUDY    24  13  62 NE6       30.18S WCI  17
$$

NEZ057>060-069>072-079>082-100000-
SOUTHWEST NEBRASKA

CITY           SKY/WX    TMP DP  RH WIND       PRES   REMARKS
NORTH PLATTE   CLEAR     25  13  60 S3        30.28R
IMPERIAL       PTCLDY    28  19  69 N7        30.23R WCI  21
LEXINGTON      CLEAR     25  13  59 S7        30.32S WCI  18
MCCOOK         CLEAR     27  16  63 E8        30.27S WCI  19
OGALLALA       CLEAR     27  15  61 CALM      30.24R
$$

NEZ005>010-023>029-035>040-094-100000-
NORTH CENTRAL NEBRASKA

CITY           SKY/WX    TMP DP  RH WIND       PRES   REMARKS
VALENTINE      PTCLDY    13   6  74 NE14      30.35R WCI  -2
AINSWORTH      PTCLDY    19   8  62 CALM      30.33S
BROKEN BOW     CLOUDY    24  12  60 SE7       30.32R WCI  16
O`NEILL        FLURRIES  19  11  70 SE3       30.41S
ORD            CLOUDY    21  10  62 E8        30.37  WCI  11
THEDFORD       CLEAR     26  11  54 CALM      30.28R
$$

NEZ041-046>049-061>064-073>077-083>087-100000-
SOUTH CENTRAL NEBRASKA

CITY           SKY/WX    TMP DP  RH WIND       PRES   REMARKS
GRAND ISLAND   CLOUDY    22  11  62 S10       30.40S WCI  11
AURORA         CLOUDY    22  11  61 S9        30.42R WCI  12
HASTINGS       CLOUDY    23  12  62 S9        30.40S WCI  13
HEBRON         CLOUDY    24  13  63 SE8       30.45S WCI  15
HOLDREGE       CLEAR     23  13  64 SE7       30.34S WCI  15
KEARNEY *      MOCLDY    21  10  63 S9        30.36S WCI  11
YORK           CLOUDY    23  12  63 S9        30.43S WCI  13
$$

NEZ011>018-030>034-042>045-100000-
NORTHEAST NEBRASKA

CITY           SKY/WX    TMP DP  RH WIND       PRES   REMARKS
NORFOLK        CLOUDY    18   8  65 SE9       30.44R WCI   7
ALBION         CLOUDY    20  10  63 S8        30.42R WCI  10
BLAIR          CLOUDY    20  11  67 E6        30.48F WCI  13
FREMONT        CLOUDY    20  11  68 E7        30.48F WCI  11
TEKAMAH        CLOUDY    18   9  68 E3        30.52F
WAYNE          FLURRIES  17   9  68 SE6       30.47S WCI   9
$$

NEZ050>053-065>068-078-088>093-100000-
SOUTHEAST NEBRASKA

CITY           SKY/WX    TMP DP  RH WIND       PRES   REMARKS
LINCOLN        CLOUDY    22  12  65 SE8       30.48F WCI  12
OMAHA EPPLEY   CLOUDY    22   9  57 E7        30.52F WCI  13
BEATRICE       CLOUDY    25  11  57 S7        30.47S WCI  17
FALLS CITY     CLOUDY    25  12  58 SE6       30.51F WCI  18
NEBRASKA CITY  CLOUDY    22  10  58 SE5       30.50F WCI  16
PLATTSMOUTH    CLOUDY    21   9  59 E6        30.50S WCI  14
$$

NEZ044-045-051>053-067-100000-
OMAHA AREA

CITY           SKY/WX    TMP DP  RH WIND       PRES   REMARKS
OMAHA EPPLEY   CLOUDY    22   9  57 E7        30.52F WCI  13
BLAIR          CLOUDY    20  11  67 E6        30.48F WCI  13
FREMONT        CLOUDY    20  11  68 E7        30.48F WCI  11
MILLARD        CLOUDY    24  13  64 E5        30.50F WCI  18
OFFUTT AFB     CLOUDY    21  11  65 E5        30.51F WCI  15
PLATTSMOUTH    CLOUDY    21   9  59 E6        30.50S WCI  14
WAHOO          CLOUDY    21  12  67 E8        30.48F WCI  12
$$



USA.gov is the U.S. government's official web portal to all federal, state and local government web resources and services.